Weather History for KVJI - October, 2012

Change the Weather History Date:

Monday, October 8, 2012

  Actual Average (KTRI) Record (KTRI)
Temperature  
Mean Temperature 45 °F 59 °F  
Max Temperature 48 °F 72 °F 88 °F (2007)
Min Temperature 42 °F 46 °F 27 °F (2000)
Degree Days  
Heating Degree Days 20 7  
Month to date heating degree days 47  
Since 1 July heating degree days 100  
Cooling Degree Days 0 1  
Month to date cooling degree days 8  
Year to date cooling degree days 976  
Moisture  
Dew Point 40 °F    
Average Humidity 82    
Maximum Humidity 94    
Minimum Humidity 67    
Precipitation  
Precipitation 0.10 in 0.07 in 0.85 in (1940)
Month to date precipitation 0.55  
Year to date precipitation 32.99  
Snow  
Snow 0.00 in 0.00 in - ()
Month to date snowfall 0.0  
Since 1 July snowfall 0.0  
Since 1 September snowfall 0.0  
Snow Depth -    
Sea Level Pressure  
Sea Level Pressure 30.16 in    
Wind  
Wind Speed 5 mph (East)    
Max Wind Speed 13 mph    
Max Gust Speed 18 mph    
Visibility 9 miles    
Events Rain    
T = Trace of Precipitation, MM = Missing Value Source: NWS Daily Summary

Daily Weather History Graph

Daily Weather History Graph

Search for Another Location

Airport or City:

Trip Planner

Search our weather history database for the weather conditions in past years. The results will help you decide how hot, cold, wet, or windy it might be!

Date:

Astronomy

Oct. 08, 2012 Rise Set
Actual Time 7:29 AM EDT 7:00 PM EDT
Civil Twilight 7:03 AM EDT 7:26 PM EDT
Nautical Twilight 6:33 AM EDT 7:56 PM EDT
Astronomical Twilight 6:03 AM EDT 8:26 PM EDT
Moon 12:18 AM EDT (10/8) 2:39 PM EDT (10/8)
Length of Visible Light 12h 22m
Length of Day
11h 30m
Waning Gibbous, 46% of the Moon is Illuminated
Oct 8
Waning Gibbous
Oct 15
New
Oct 21
First Quarter
Oct 29
Full
Nov 6
Last Quarter

Hourly Weather History & Observations

Time (EDT) Temp. Windchill Dew Point Humidity Pressure Visibility Wind Dir Wind Speed Gust Speed Precip Events Conditions
12:15 AM 42.8 °F - 41.0 °F 93% 30.17 in 10.0 mi Calm Calm - N/A   Clear
12:35 AM 42.8 °F 41.1 °F 40.3 °F 91% 30.17 in 10.0 mi East 3.5 mph - N/A   Clear
12:55 AM 42.8 °F 41.1 °F 40.3 °F 91% 30.16 in 10.0 mi East 3.5 mph - N/A   Clear
1:15 AM 42.3 °F 38.6 °F 39.9 °F 91% 30.16 in 10.0 mi ESE 5.8 mph - N/A   Clear
1:35 AM 42.3 °F 38.6 °F 40.3 °F 93% 30.15 in 1.8 mi ESE 5.8 mph - 0.01 in   Overcast
1:55 AM 42.4 °F 38.1 °F 40.6 °F 93% 30.13 in 0.8 mi East 6.9 mph - 0.01 in   Overcast
2:15 AM 42.8 °F 40.1 °F 41.0 °F 93% 30.15 in 2.0 mi East 4.6 mph - N/A   Overcast
2:35 AM 42.3 °F 40.5 °F 40.6 °F 94% 30.16 in 7.0 mi East 3.5 mph - N/A   Scattered Clouds
2:55 AM 42.3 °F - 40.6 °F 94% 30.16 in 10.0 mi Calm Calm - N/A   Clear
3:15 AM 42.1 °F 39.2 °F 40.5 °F 94% 30.16 in 10.0 mi ENE 4.6 mph - N/A   Mostly Cloudy
3:35 AM 42.8 °F 41.1 °F 39.9 °F 90% 30.16 in 10.0 mi ENE 3.5 mph - N/A   Overcast
3:55 AM 43.0 °F 39.5 °F 39.4 °F 87% 30.16 in 10.0 mi East 5.8 mph - N/A   Overcast
4:15 AM 42.8 °F 39.3 °F 39.0 °F 86% 30.15 in 10.0 mi ENE 5.8 mph - N/A   Overcast
4:35 AM 43.3 °F 41.7 °F 38.8 °F 84% 30.17 in 10.0 mi East 3.5 mph - N/A   Overcast
4:55 AM 43.9 °F 42.3 °F 39.4 °F 84% 30.17 in 10.0 mi East 3.5 mph - N/A   Overcast
5:15 AM 43.9 °F 40.5 °F 39.7 °F 85% 30.16 in 10.0 mi East 5.8 mph - N/A   Overcast
5:35 AM 43.9 °F 38.8 °F 39.2 °F 84% 30.15 in 10.0 mi East 9.2 mph - N/A   Overcast
5:55 AM 44.1 °F 39.0 °F 39.2 °F 83% 30.14 in 10.0 mi East 9.2 mph - N/A   Overcast
6:15 AM 43.9 °F 37.9 °F 39.2 °F 84% 30.14 in 10.0 mi East 11.5 mph - N/A   Mostly Cloudy
6:35 AM 44.2 °F 39.7 °F 38.3 °F 80% 30.15 in 10.0 mi East 8.1 mph - N/A   Mostly Cloudy
6:55 AM 44.4 °F 42.0 °F 37.9 °F 78% 30.16 in 10.0 mi NE 4.6 mph - N/A   Overcast
7:15 AM 43.7 °F 39.7 °F 37.9 °F 80% 30.16 in 10.0 mi NE 6.9 mph - N/A   Overcast
7:35 AM 44.2 °F 39.2 °F 37.6 °F 77% 30.15 in 10.0 mi East 9.2 mph - N/A   Overcast
7:55 AM 44.8 °F 39.9 °F 37.4 °F 75% 30.16 in 10.0 mi East 9.2 mph - N/A   Overcast
8:15 AM 45.1 °F 39.9 °F 37.4 °F 74% 30.17 in 10.0 mi East 10.4 mph - N/A   Overcast
8:35 AM 45.5 °F 39.6 °F 37.0 °F 72% 30.16 in 10.0 mi East 12.7 mph - N/A   Overcast
8:55 AM 45.7 °F 40.2 °F 36.7 °F 71% 30.17 in 10.0 mi East 11.5 mph 18.4 mph N/A   Overcast
9:15 AM 46.0 °F 41.0 °F 36.7 °F 70% 30.17 in 10.0 mi East 10.4 mph - N/A   Overcast
9:35 AM 46.0 °F 40.6 °F 36.5 °F 69% 30.17 in 10.0 mi East 11.5 mph 16.1 mph N/A   Overcast
9:55 AM 46.2 °F 42.2 °F 36.5 °F 69% 30.18 in 10.0 mi East 8.1 mph - N/A   Overcast
10:15 AM 46.6 °F - 36.5 °F 68% 30.18 in 10.0 mi East 9.2 mph - N/A   Overcast
10:35 AM 46.6 °F - 36.3 °F 67% 30.18 in 10.0 mi ENE 8.1 mph - N/A   Overcast
10:55 AM 46.8 °F - 37.8 °F 71% 30.19 in 10.0 mi East 8.1 mph - N/A   Overcast
11:15 AM 46.8 °F - 37.4 °F 70% 30.20 in 10.0 mi ENE 5.8 mph - N/A   Overcast
11:35 AM 46.6 °F - 38.1 °F 72% 30.21 in 10.0 mi Calm Calm - N/A   Overcast
12:15 PM 46.4 °F 44.3 °F 39.4 °F 77% 30.22 in 10.0 mi East 4.6 mph - N/A Rain Rain
12:35 PM 46.8 °F - 40.8 °F 80% 30.18 in 10.0 mi East 8.1 mph - N/A Rain Light Rain
12:55 PM 46.6 °F - 39.7 °F 77% 30.19 in 10.0 mi ESE 8.1 mph - N/A   Overcast
1:15 PM 46.0 °F 41.9 °F 39.6 °F 78% 30.19 in 10.0 mi East 8.1 mph - N/A   Light Drizzle
1:35 PM 46.0 °F 41.9 °F 40.6 °F 81% 30.18 in 4.0 mi East 8.1 mph - 0.01 in Rain Rain
1:55 PM 46.0 °F 42.5 °F 41.9 °F 85% 30.18 in 4.0 mi East 6.9 mph - 0.01 in Rain Light Rain
2:15 PM 46.0 °F 41.9 °F 42.1 °F 86% 30.17 in 10.0 mi East 8.1 mph - N/A   Light Drizzle
2:35 PM 45.9 °F 42.3 °F 41.7 °F 85% 30.17 in 10.0 mi East 6.9 mph - 0.01 in Rain Light Rain
2:55 PM 46.4 °F 43.5 °F 42.3 °F 85% 30.16 in 7.0 mi East 5.8 mph - 0.01 in   Light Drizzle
3:15 PM 46.8 °F - 42.8 °F 86% 30.16 in 10.0 mi ESE 9.2 mph - 0.01 in   Light Drizzle
3:55 PM 47.3 °F - 42.3 °F 83% 30.15 in 10.0 mi East 6.9 mph - 0.02 in   Overcast
4:15 PM 47.8 °F - 42.8 °F 83% 30.14 in 10.0 mi ESE 8.1 mph - N/A   Overcast
4:35 PM 47.8 °F - 42.3 °F 81% 30.14 in 10.0 mi ESE 6.9 mph - 0.01 in   Overcast
4:55 PM 47.7 °F - 42.1 °F 81% 30.14 in 10.0 mi ESE 4.6 mph - 0.01 in   Overcast
5:15 PM 47.7 °F - 42.1 °F 81% 30.14 in 10.0 mi East 4.6 mph - N/A Rain Light Rain
5:35 PM 48.0 °F - 42.4 °F 81% 30.14 in 10.0 mi East 4.6 mph - 0.01 in   Overcast
5:55 PM 48.2 °F - 42.4 °F 80% 30.13 in 10.0 mi East 6.9 mph - 0.01 in   Overcast
6:15 PM 48.2 °F - 41.9 °F 79% 30.14 in 10.0 mi East 4.6 mph - 0.01 in   Overcast
6:35 PM 47.7 °F - 42.4 °F 82% 30.14 in 10.0 mi ENE 3.5 mph - 0.01 in   Overcast
6:55 PM 47.5 °F - 42.8 °F 84% 30.14 in 10.0 mi Calm Calm - 0.01 in   Overcast
7:15 PM 47.3 °F - 42.8 °F 84% 30.14 in 10.0 mi Calm Calm - N/A   Overcast
7:35 PM 47.3 °F - 42.8 °F 84% 30.14 in 10.0 mi Calm Calm - 0.01 in   Overcast
7:55 PM 47.3 °F - 42.8 °F 84% 30.15 in 10.0 mi Calm Calm - 0.01 in   Overcast
8:15 PM 47.1 °F - 42.8 °F 85% 30.14 in 10.0 mi East 3.5 mph - N/A   Overcast
8:35 PM 46.9 °F - 43.0 °F 86% 30.15 in 10.0 mi ENE 4.6 mph - N/A   Overcast
8:55 PM 46.9 °F - 43.2 °F 87% 30.15 in 10.0 mi East 4.6 mph - 0.01 in   Overcast
9:15 PM 47.3 °F - 43.2 °F 86% 30.15 in 10.0 mi ENE 3.5 mph - N/A   Overcast
9:35 PM 47.1 °F - 42.8 °F 85% 30.15 in 10.0 mi East 3.5 mph - N/A   Overcast
10:15 PM 46.9 °F - 42.3 °F 84% 30.16 in 10.0 mi ESE 5.8 mph - N/A   Overcast
10:35 PM 46.8 °F - 41.9 °F 83% 30.16 in 10.0 mi East 6.9 mph - N/A   Overcast
10:55 PM 46.6 °F - 41.9 °F 84% 30.16 in 10.0 mi East 6.9 mph - N/A   Overcast
11:15 PM 46.6 °F - 41.7 °F 83% 30.16 in 10.0 mi East 6.9 mph - N/A   Overcast
11:35 PM 46.6 °F - 41.9 °F 84% 30.16 in 10.0 mi East 4.6 mph - N/A   Overcast